Voltar ao catálogo

STARLINK-5091

AtivoComunicaçõesVLEO
NORAD 54873·PAYLOAD·🇺🇸 United States

Lançado Dec 28, 2022 de Cape Canaveral Space Force Station

Loading…

Próximas Passagens (próximas 24 horas)

TLE

AtualizadoSource: CelesTrak SupGP

Época: Sep 15, 2026, 01:27 UTC

1 54873C 22177BF  26258.06090278  .00049160  00000+0  17805-2 0  2581
2 54873  43.0001 132.2207 0001162 244.0189  22.2537 15.27555399    15

Acompanhe STARLINK-5091 em tempo real com AllMySat

Download on the App Store